Date String (YYYY-MM-DD hh:mm:ss) UTC,Instrument flags,Ambient pressure (hPa),Sample flow (lpm),Bypass flow (lpm),Sample temperature (°C),Ambient temperature (°C),ASC tube jacket temperature (°C),LED temperature (°C),Box temperature (°C),Sample RH (%),Span deviation,Mass concentration (μg/m³),Mass concentration (μg/m³),Mass concentration (μg/m³)
DateTimeUTC,F1_M11,P_M11,Q1_M11,Q2_M11,T1_M11,T2_M11,T3_M11,T4_M11,T5_M11,U1_M11,ZSPAN_M11,X2_M11,X0_M11,X1_M11
2022-06-03 06:00:00,,0826.6,4.99,0.00,29.4,28.3,00.0,38.3,31.3,23.5,0000.0,0006.84,0012.16,0006.15
2022-06-03 06:01:00,,0826.5,5.00,0.00,29.4,28.3,00.0,38.3,31.3,23.5,0000.0,0006.81,0012.77,0006.12
2022-06-03 06:02:00,,0826.6,5.01,0.00,29.4,28.4,00.0,38.3,31.3,23.5,0000.0,0006.77,0012.66,0006.09
2022-06-03 06:03:00,,0826.5,5.00,0.00,29.4,28.4,00.0,38.3,31.3,23.5,0000.0,0006.74,0012.53,0006.07
2022-06-03 06:04:00,,0826.5,5.01,0.00,29.4,28.4,00.0,38.3,31.3,23.5,0000.0,0006.69,0011.94,0006.07
2022-06-03 06:05:00,,0826.5,4.99,0.00,29.4,28.4,00.0,38.3,31.3,23.4,0000.0,0006.67,0011.85,0006.07
2022-06-03 06:06:00,,0826.5,5.00,0.00,29.4,28.4,00.0,38.3,31.3,23.4,0000.0,0006.67,0011.79,0006.07
2022-06-03 06:07:00,,0826.5,4.99,0.00,29.5,28.4,00.0,38.3,31.3,23.4,0000.0,0006.66,0011.64,0006.06
2022-06-03 06:08:00,,0826.5,5.00,0.00,29.5,28.4,00.0,38.3,31.3,23.4,0000.0,0006.65,0011.42,0006.06
2022-06-03 06:09:00,,0826.5,5.00,0.00,29.5,28.3,00.0,38.4,31.3,23.4,0000.0,0006.65,0011.14,0006.05
2022-06-03 06:10:00,,0826.5,5.00,0.00,29.5,28.3,00.0,38.4,31.3,23.4,0000.0,0006.63,0011.17,0006.03
2022-06-03 06:11:00,,0826.5,5.00,0.00,29.5,28.3,00.0,38.4,31.3,23.5,0000.0,0006.58,0011.02,0006.00
2022-06-03 06:12:00,,0826.5,5.00,0.00,29.5,28.3,00.0,38.4,31.3,23.5,0000.0,0006.55,0010.20,0005.98
2022-06-03 06:13:00,,0826.5,5.00,0.00,29.5,28.4,00.0,38.4,31.3,23.5,0000.0,0006.53,0010.14,0005.96
2022-06-03 06:14:00,,0826.5,5.01,0.00,29.5,28.4,00.0,38.4,31.3,23.5,0000.0,0006.52,0010.44,0005.94
2022-06-03 06:15:00,,0826.5,5.00,0.00,29.5,28.4,00.0,38.4,31.3,23.5,0000.0,0006.52,0010.59,0005.90
2022-06-03 06:16:00,,0826.5,5.00,0.00,29.5,28.4,00.0,38.4,31.3,23.6,0000.0,0006.49,0010.65,0005.87
2022-06-03 06:17:00,,0826.5,5.00,0.00,29.5,28.4,00.0,38.4,31.3,23.6,0000.0,0006.49,0011.15,0005.84
2022-06-03 06:18:00,,0826.5,5.00,0.00,29.5,28.4,00.0,38.4,31.3,23.6,0000.0,0006.43,0011.11,0005.80
2022-06-03 06:19:00,,0826.5,5.00,0.00,29.5,28.4,00.0,38.4,31.3,23.6,0000.0,0006.40,0011.21,0005.76
2022-06-03 06:20:00,,0826.5,5.00,0.00,29.5,28.4,00.0,38.4,31.3,23.4,0000.0,0006.36,0011.46,0005.73
2022-06-03 06:21:00,,0826.5,4.99,0.00,29.5,28.4,00.0,38.4,31.3,23.5,0000.0,0006.34,0011.44,0005.69
2022-06-03 06:22:00,,0826.5,5.00,0.00,29.5,28.4,00.0,38.4,31.3,23.7,0000.0,0006.32,0011.31,0005.66
2022-06-03 06:23:00,,0826.5,5.00,0.00,29.5,28.4,00.0,38.4,31.3,23.4,0000.0,0006.27,0011.14,0005.64
2022-06-03 06:24:00,,0826.5,5.00,0.00,29.5,28.4,00.0,38.4,31.4,23.5,0000.0,0006.24,0011.11,0005.61
2022-06-03 06:25:00,,0826.5,5.00,0.00,29.5,28.4,00.0,38.4,31.3,23.4,0000.0,0006.21,0010.94,0005.60
2022-06-03 06:26:00,,0826.5,5.01,0.00,29.5,28.4,00.0,38.4,31.3,23.2,0000.0,0006.21,0010.86,0005.59
2022-06-03 06:27:00,,0826.5,4.98,0.00,29.5,28.4,00.0,38.4,31.3,23.0,0000.0,0006.23,0010.99,0005.60
2022-06-03 06:28:00,,0826.4,4.99,0.00,29.5,28.4,00.0,38.4,31.4,23.0,0000.0,0006.21,0010.59,0005.61
2022-06-03 06:29:00,,0826.4,5.00,0.00,29.5,28.4,00.0,38.4,31.3,23.2,0000.0,0006.23,0010.58,0005.63
2022-06-03 06:30:00,,0826.4,5.01,0.00,29.5,28.4,00.0,38.4,31.4,23.2,0000.0,0006.23,0010.73,0005.65
2022-06-03 06:31:00,,0826.3,5.00,0.00,29.5,28.4,00.0,38.4,31.4,23.1,0000.0,0006.24,0010.48,0005.67
2022-06-03 06:32:00,,0826.3,5.00,0.00,29.5,28.4,00.0,38.4,31.3,23.1,0000.0,0006.29,0010.65,0005.70
2022-06-03 06:33:00,,0826.3,4.99,0.00,29.5,28.4,00.0,38.4,31.3,23.1,0000.0,0006.35,0011.41,0005.71
2022-06-03 06:34:00,,0826.4,5.00,0.00,29.5,28.4,00.0,38.4,31.3,23.1,0000.0,0006.37,0011.50,0005.72
2022-06-03 06:35:00,,0826.3,5.00,0.00,29.5,28.4,00.0,38.4,31.3,23.1,0000.0,0006.39,0011.48,0005.73
2022-06-03 06:36:00,,0826.3,5.00,0.00,29.5,28.4,00.0,38.4,31.3,23.1,0000.0,0006.39,0011.44,0005.73
2022-06-03 06:37:00,,0826.3,5.00,0.00,29.5,28.4,00.0,38.4,31.3,23.2,0000.0,0006.37,0011.32,0005.73
2022-06-03 06:38:00,,0826.3,5.01,0.00,29.5,28.4,00.0,38.4,31.3,23.2,0000.0,0006.33,0011.14,0005.71
2022-06-03 06:39:00,,0826.2,5.01,0.00,29.5,28.4,00.0,38.4,31.4,23.0,0000.0,0006.32,0011.10,0005.71
2022-06-03 06:40:00,,0826.2,5.00,0.00,29.5,28.4,00.0,38.4,31.3,23.0,0000.0,0006.31,0011.17,0005.69
2022-06-03 06:41:00,,0826.2,4.99,0.00,29.5,28.4,00.0,38.4,31.3,23.0,0000.0,0006.30,0010.79,0005.67
2022-06-03 06:42:00,,0826.2,5.00,0.00,29.5,28.4,00.0,38.4,31.3,23.1,0000.0,0006.32,0010.84,0005.67
2022-06-03 06:43:00,,0826.2,5.00,0.00,29.5,28.4,00.0,38.4,31.3,23.1,0000.0,0006.32,0010.83,0005.68
2022-06-03 06:44:00,,0826.2,5.00,0.00,29.5,28.4,00.0,38.4,31.3,23.0,0000.0,0006.33,0010.16,0005.71
2022-06-03 06:45:00,,0826.2,5.01,0.00,29.5,28.4,00.0,38.4,31.3,22.9,0000.0,0006.36,0010.14,0005.72
2022-06-03 06:46:00,,0826.2,5.01,0.00,29.5,28.4,00.0,38.4,31.3,22.9,0000.0,0006.38,0010.22,0005.73
2022-06-03 06:47:00,,0826.2,5.01,0.00,29.5,28.4,00.0,38.4,31.3,22.9,0000.0,0006.37,0010.15,0005.73
2022-06-03 06:48:00,,0826.2,5.01,0.00,29.5,28.3,00.0,38.4,31.3,22.9,0000.0,0006.38,0010.22,0005.72
2022-06-03 06:49:00,,0826.1,5.00,0.00,29.5,28.3,00.0,38.4,31.3,22.9,0000.0,0006.41,0010.35,0005.74
2022-06-03 06:50:00,,0826.1,5.01,0.00,29.5,28.3,00.0,38.4,31.3,22.9,0000.0,0006.40,0010.37,0005.73
2022-06-03 06:51:00,,0826.1,5.01,0.00,29.5,28.4,00.0,38.4,31.3,22.9,0000.0,0006.36,0010.37,0005.71
2022-06-03 06:52:00,,0826.1,5.00,0.00,29.5,28.4,00.0,38.4,31.3,22.9,0000.0,0006.35,0011.09,0005.69
2022-06-03 06:53:00,,0826.1,5.00,0.00,29.5,28.4,00.0,38.4,31.3,22.9,0000.0,0006.33,0011.21,0005.66
2022-06-03 06:54:00,,0826.2,5.00,0.00,29.5,28.4,00.0,38.4,31.3,22.8,0000.0,0006.31,0011.26,0005.63
2022-06-03 06:55:00,,0826.1,5.00,0.00,29.5,28.4,00.0,38.4,31.3,22.8,0000.0,0006.28,0011.30,0005.61
2022-06-03 06:56:00,,0826.2,5.00,0.00,29.5,28.3,00.0,38.4,31.3,22.8,0000.0,0006.26,0011.34,0005.59
2022-06-03 06:57:00,,0826.1,5.01,0.00,29.5,28.3,00.0,38.4,31.3,22.8,0000.0,0006.23,0011.39,0005.57
2022-06-03 06:58:00,,0826.1,5.01,0.00,29.5,28.3,00.0,38.4,31.3,22.9,0000.0,0006.21,0011.33,0005.56
2022-06-03 06:59:00,,0826.0,5.00,0.00,29.5,28.3,00.0,38.4,31.3,22.8,0000.0,0006.20,0011.34,0005.55
